Location: Belgrave
(43.8194°N, 81.3663°W)
Time: 23:55:07
(UTC+00:00)

Daily predictions for brighter satellites

Satellite Brightness Start Highest point End
(mag) Time Altitude Azimuth Time Altitude Azimuth Time Altitude Azimuth
Cosmos 2322 Rocket 3.8 12:03:51 10° WNW 12:06:56 15° W 12:10:07 10° SW
Cosmos 1174 4.3 12:01:46 10° NW 12:07:10 67° WSW 12:11:29 10° SSE
Cosmos 1484 Rocket 3.6 12:04:34 10° NNW 12:07:15 22° WNW 12:09:53 10° WSW
Helios 1A Rocket 4.4 12:06:10 10° WSW 12:07:46 13° W 12:09:21 10° WNW
Cosmos 2208 Rocket 3.9 12:02:46 10° SSW 12:07:59 75° WNW 12:13:12 10° NNE
USA 290 2.2 12:05:34 10° SSW 12:08:46 90° ESE 12:12:01 10° NNE
Cosmos 1842 Rocket 4.4 12:05:16 10° N 12:09:30 52° ENE 12:13:43 10° SSE
USA 81 4.1 12:08:33 10° S 12:13:48 89° W 12:19:06 10° N
Cosmos 2298 Rocket 4.2 12:09:33 10° NNW 12:14:54 83° ENE 12:20:11 10° SSE
Meteor 1-5 Rocket 4.2 12:10:17 10° S 12:15:40 89° E 12:21:00 10° N
IRIDIUM 106 4.3 22:18:11 10° N 22:23:24 66° E 22:28:35 10° SSE
Cosmos 1867 3.7 22:19:03 10° NW 22:24:33 85° SW 22:29:59 10° SSE
UNK 4.0 22:21:28 10° NNE 22:25:55 50° E 22:30:19 10° S
Cosmos 1743 3.3 22:23:24 10° NNW 22:26:34 50° W 22:29:41 10° S
Cosmos 2266 Rocket 3.9 22:21:39 10° N 22:27:47 77° E 22:33:48 10° SSE
CORIOLIS 4.2 22:22:45 10° SSE 22:27:57 58° ENE 22:33:12 10° N
YAOGAN 1 4.3 22:27:54 10° E 22:29:30 12° ENE 22:31:06 10° NE
Cosmos 1602 Rocket 3.8 22:25:19 10° NNW 22:29:40 74° W 22:33:58 10° S
Cosmos 1933 3.1 22:26:12 10° S 22:29:59 72° E 22:33:48 10° NNE
Cosmos 1844 Rocket 4.4 22:29:37 10° NNE 22:32:07 13° NE 22:34:36 10° ENE
Cosmos 1980 Rocket 2.5 22:27:26 10° S 22:32:50 50° ESE 22:38:16 10° NE
IRS-1C 4.4 22:29:12 10° SE 22:34:14 47° ENE 22:39:20 10° N
NOSS 3-2 (C) 4.0 22:29:54 10° WSW 22:34:44 44° NW 22:40:31 10° NNE
Lacrosse 5 rocket 3.4 22:34:01 10° NNW 22:34:48 11° N 22:35:34 10° NNE
CBERS-1 4.2 22:30:35 10° SSE 22:35:41 79° WSW 22:40:50 10° NNW
Cosmos 2219 3.8 22:32:11 10° N 22:37:27 35° NE 22:42:41 10° ESE
Cosmos 1484 Rocket 3.5 22:37:04 10° S 22:40:28 51° W 22:43:53 10° NNW
Cosmos 2263 Rocket 2.3 22:36:17 10° NNW 22:41:51 54° ENE 22:47:24 10° SE
Okean 1-7 Rocket 3.7 22:38:56 10° N 22:43:18 79° W 22:47:39 10° S
CZ-4C R/B 3.6 22:37:41 10° NW 22:44:55 65° WSW 22:53:39 10° SSE
SJ-12 4.0 22:41:24 10° SE 22:44:59 44° ENE 22:48:36 10° N
SPOT 1/Viking Rocket 4.3 22:40:47 10° SE 22:45:14 30° ENE 22:49:42 10° N
USA 308 4.5 22:45:27 10° SE 22:46:43 12° ESE 22:47:47 11° ESE
COSMOS 2455 4.0 22:44:11 10° SSE 22:48:51 24° ESE 22:52:27 14° ENE
SMAP 3.0 22:45:45 10° SSE 22:50:23 85° ENE 22:55:05 10° NNW
Cosmos 1538 Rocket 4.1 22:46:56 10° NNW 22:52:10 59° ENE 22:57:26 10° SE
MOS 1 Rocket 3.6 22:47:31 10° SSE 22:52:21 53° ENE 22:57:26 10° N
Meteor 1-5 Rocket 4.1 22:47:36 10° N 22:53:01 72° E 22:58:32 10° SSE
Cosmos 2369 4.2 22:48:06 10° S 22:53:24 41° ESE 22:58:20 12° NE
Landsat 7 3.7 22:49:29 10° SSE 22:54:07 73° ENE 22:58:46 10° N
COSMO-SKYMED 1 3.9 22:53:03 16° ENE 22:54:17 18° E 22:57:07 10° SE
Cosmos 1953 Rocket 3.6 22:50:35 10° N 22:54:59 58° E 22:59:22 10° SSE
Cosmos 1805 3.8 22:52:11 10° NNE 22:55:03 25° ENE 22:57:54 10° SE
Cosmos 1825 Rocket 3.9 22:57:36 10° NNW 23:01:54 68° W 23:06:09 10° S
Cosmos 1076 Rocket 3.4 22:57:38 10° N 23:01:58 76° E 23:06:17 10° SSE
SAR-Lupe-3 4.4 23:02:29 29° E 23:02:46 30° E 23:05:00 10° SSE
Cosmos 2227 Rocket 2.8 22:58:40 10° NNW 23:04:14 61° WSW 23:09:47 10° S
NOSS 2-3 (C) 3.8 23:01:41 10° SW 23:05:01 46° NW 23:07:57 14° NNE
Thor Agena Rocket 4.3 23:02:34 10° S 23:07:40 58° WSW 23:12:45 10° NNW
Cosmos 1697 Rocket 3.9 23:06:39 10° SW 23:11:52 39° WNW 23:17:08 10° NNE
Cosmos 372 Rocket 3.9 23:06:57 10° SSW 23:12:05 85° ESE 23:17:14 10° NNE
Cosmos 1898 Rocket 3.4 23:10:36 10° SSW 23:15:43 74° ESE 23:20:26 13° NNE
ERS-1 4.4 23:11:40 10° SSE 23:16:41 89° W 23:21:40 10° NNW
BREEZE-M DEB (TANK) 4.0 23:13:19 10° WNW 23:16:54 59° NNE 23:25:47 15° E
Spot 4 Rocket 4.4 23:13:38 10° SE 23:18:22 40° ENE 23:23:09 10° N
SL-16 R/B 4.1 23:17:10 10° N 23:22:38 33° WNW 23:28:02 10° SW
IRS-P3 4.1 23:17:51 10° SSE 23:23:10 87° ENE 23:28:31 10° NNW
BREEZE-M DEB (TANK) 4.5 23:15:56 10° SSW 23:24:17 39° SSE 23:26:18 25° E
Cosmos 2333 Rocket 3.5 23:20:57 10° SSE 23:24:52 21° ESE 23:24:52 21° ESE
CZ-4 R/B 4.2 23:21:31 10° SSE 23:25:24 65° ENE 23:29:20 10° N
Helios 1A Rocket 4.4 23:28:50 16° SE 23:28:50 16° SE 23:29:51 10° SSE
Okean 1 2.9 23:23:41 10° S 23:27:15 72° E 23:29:13 25° NNE
Cosmos 1937 Rocket 3.4 23:24:04 10° S 23:29:13 72° ESE 23:32:50 20° NNE
Cosmos 2058 Rocket 3.1 23:26:12 10° S 23:30:41 82° W 23:35:10 10° N
Cosmos 2322 Rocket 3.8 23:28:31 10° SE 23:30:37 16° ESE 23:30:37 16° ESE
Cosmos 923 Rocket 3.9 23:28:19 10° NNW 23:33:28 58° ENE 23:38:32 10° SE
USA 238 DEB 4.0 23:30:08 10° SW 23:36:07 56° NW 23:41:16 17° NNE
USA 238 4.0 23:30:14 10° SW 23:36:14 57° NW 23:41:22 17° NNE
Cosmos-2242 3.1 23:33:59 10° SSW 23:38:12 72° W 23:42:18 11° N
Cosmos 967 Rocket 4.4 23:32:03 10° SSW 23:38:24 80° ESE 23:42:26 24° NE
USA 215 4.4 23:36:57 21° NE 23:39:42 28° N 23:45:05 10° NW
GEOS 3 Rocket 4.3 23:37:59 18° NNE 23:41:54 52° NW 23:47:05 10° WSW
MINOTAUR IV R/B 4.4 23:39:06 10° NNW 23:43:30 68° ENE 23:46:23 21° SE
SL-24 R/B - RUBIN 2 3.8 23:42:04 10° SSW 23:47:33 83° SE 23:49:23 40° NE
Cosmos 44 Rocket 4.0 23:42:50 10° NNW 23:47:13 36° NE 23:47:13 36° NE
Cosmos 1844 4.3 23:42:35 10° N 23:47:05 34° NE 23:47:05 34° NE
Resurs 1-3 3.4 23:44:57 10° SSE 23:49:14 73° ENE 23:53:33 10° N
SWAS 4.1 23:48:40 10° SSW 23:52:42 77° ESE 23:52:55 74° E
Gbstr 26 Del rocket 4.1 23:49:39 10° WNW 23:52:59 26° N 23:53:00 26° N
Cosmos 2082 3.8 23:47:57 10° NNW 23:53:42 79° WSW 23:59:24 10° SSE
CZ-2D R/B 3.5 23:51:16 10° S 23:55:26 78° WSW 23:59:35 10° NNW
